Flag for United Kingdom Weather past 2 weeks in Greenwich Borough, England, United Kingdom

Now
61 °F

Passing clouds.


Feels Like: 61 °F
Forecast: 52 / 71 °F
Wind: 5 mph from South

Location: Biggin Hill Airport

Current Time: Jul 31, 2015 at 9:28:37 PM

Latest Report: Jul 31, 2015 at 8:20 PM


Visibility: N/A

Pressure: 30.01 "Hg

Humidity: 52%

Dew point: 43 °F

Location of Greenwich BoroughLocation

Historic Weather in Greenwich Borough — Graph

°F

Greenwich Borough temperature yesterday

Maximum temperature yesterday: 64 °F (at 4:20 PM)
Minimum temperature yesterday: 52 °F (at 7:50 AM)
Average temperature yesterday: 59 °F

Past Weeks' High & Low Weather Summary

 TemperatureHumidityPressure
High75 °F (Jul 21, 3:50 PM)94% (Jul 20, 7:50 PM)30.12 "Hg (Jul 20, 7:50 PM)
Low52 °F (Jul 29, 7:20 AM)35% (Jul 18, 1:50 PM)29.47 "Hg (Jul 26, 6:20 PM)
Average63 °F63%29.89 "Hg
* Reported Jul 16 8:20 PM — Jul 31 8:20 PM, Greenwich Borough, Weather by CustomWeather, © 2015

Note: Actual official high and low records may vary slightly from our data, if they occured in-between our weather recording intervals... More about our weather records

Advertising

Greenwich Borough weather history for previous 24 hours

 ConditionsComfort  
Time TempWeatherWind HumidityBarometerVisibility
8:20 PM
Fri, Jul 31
61 °FPassing clouds.5 mph52%30.01 "HgN/A
7:50 PM63 °FSunny.7 mph52%30.01 "Hg10 mi
7:20 PM64 °FPassing clouds.8 mph49%30.01 "HgN/A
6:50 PM64 °FPassing clouds.8 mph49%30.01 "HgN/A
6:20 PM66 °FPassing clouds.8 mph46%30.01 "HgN/A
5:50 PM66 °FPassing clouds.8 mph49%30.04 "HgN/A
5:20 PM66 °FPassing clouds.7 mph49%30.04 "HgN/A
4:50 PM66 °FPassing clouds.7 mph49%30.04 "HgN/A
4:20 PM66 °FScattered clouds.7 mph49%30.04 "HgN/A
3:50 PM68 °FPassing clouds.5 mph49%30.04 "HgN/A
3:20 PM66 °FPassing clouds.7 mph49%30.07 "HgN/A
2:50 PM64 °FPassing clouds.6 mph49%30.07 "HgN/A
2:20 PM64 °FScattered clouds.8 mph52%30.07 "HgN/A
1:50 PM66 °FPassing clouds.5 mph46%30.07 "HgN/A
1:20 PM64 °FPassing clouds.5 mph46%30.09 "HgN/A
12:50 PM64 °FPassing clouds.3 mph46%30.09 "HgN/A
12:20 PM66 °FPassing clouds.7 mph43%30.09 "HgN/A
11:50 AM66 °FPassing clouds.6 mph43%30.09 "HgN/A
11:20 AM63 °FPassing clouds.7 mph49%30.09 "HgN/A
10:50 AM64 °FPassing clouds.7 mph46%30.09 "HgN/A
10:20 AM64 °FPassing clouds.7 mph49%30.12 "HgN/A
9:50 AM63 °FPassing clouds.7 mph52%30.12 "HgN/A
9:20 AM61 °FPassing clouds.5 mph55%30.12 "HgN/A
8:50 AM61 °FPassing clouds.6 mph55%30.12 "HgN/A
8:20 AM59 °FSunny.2 mph63%30.12 "Hg10 mi
7:50 AM57 °FSunny.3 mph67%30.12 "Hg10 mi
7:20 AM55 °FSunny.1 mph72%30.12 "Hg10 mi
6:50 AM54 °FSunny.No wind77%30.12 "Hg10 mi
9:20 PM
Thu, Jul 30
57 °FSunny.3 mph67%30.12 "Hg10 mi
Weather by CustomWeather, © 2015

See weather overviewHow to use our weather pages